Regional Weather Roundup
Issued by NWS

Home | Current Version | Previous Version | Text Only | Print | Product List | Glossary On
Versions: 1 2 3 4 5 6 7 8 9 10 11 12 13 14 15 16 17 18 19 20 21 22 23 24 25 26 27 28 29 30 31 32 33 34 35 36 37 38 39 40 41 42 43 44 45 46 47 48 49 50
000
ASUS44 KLIX 261310
RWRLA
LOUISIANA WEATHER ROUNDUP
NATIONAL WEATHER SERVICE NEW ORLEANS LA
800 AM CDT SAT JUL 26 2014

NOTE: "FAIR" INDICATES FEW OR NO CLOUDS BELOW 12,000 FEET WITH NO
      SIGNIFICANT WEATHER AND/OR OBSTRUCTIONS TO VISIBILITY.
      SKY/WX - SKY CONDITION AND SIGNIFICANT WEATHER.
      TMP - AIR TEMPERATURE.    DP   - DEWPOINT TEMPERATURE.
      RH  - RELATIVE HUMIDITY.  PRES - PRESSURE.
      HX  - HEAT INDEX.         WCI  - WIND CHILL INDEX.

*  THESE STATIONS ARE NOT NWS OR FAA STATIONS AND ARE NOT UNDER
   NWS QUALITY CONTROL.

LAZ040-048-061>063-065-066-069-261400-
SOUTHEAST LOUISIANA

CITY           SKY/WX    TMP DP  RH WIND       PRES   REMARKS
N.O. AUDUBON     N/A     84  76  78 MISG        N/A
N.O. INTL ARPT MOSUNNY   82  76  81 SW5       30.07R
N.O. LAKEFRONT SUNNY     82  76  81 W8        30.07R
N.O. DOWNTOWN* FAIR      82  73  74 CALM      30.07R
SLIDELL        SUNNY     81  76  84 CALM      30.06R
BATON ROUGE    MOSUNNY   81  75  82 W6        30.06R
BOOTHVILLE     SUNNY     84  77  79 W8        30.08R
BELLE CHASSE   MOSUNNY   81  76  84 CALM      30.07R
BOGALUSA*      FAIR      78  74  85 CALM      30.08R
GALLIANO*      NOT AVBL
NEW ROADS*     FAIR      78  76  95 CALM      30.07R
GONZALES*      FAIR      80  80 100 CALM      30.06R
HAMMOND*       SUNNY     81  73  78 CALM      30.09R
HOUMA*         MOSUNNY   79  75  89 CALM      30.07
PORT FOURCHON* MOSUNNY   84  77  79 W6        30.09R

$$

LAZ041-044-053-054-261400-
SOUTHWEST LOUISIANA

CITY           SKY/WX    TMP DP  RH WIND       PRES   REMARKS
LAKE CHARLES   SUNNY     82  77  84 CALM      30.05R
LAFAYETTE      MOSUNNY   81  77  88 CALM      30.06R
PATTERSON      MOSUNNY   81  77  89 CALM      30.10R
SALT POINT       N/A     87  77  72 VRB5      30.05R HX  99
NEW IBERIA     SUNNY     81  77  88 CALM      30.07R
CHENAULT AIRPK SUNNY     82  75  78 CALM      30.06R

$$

LAZ027-028-261400-
CENTRAL LOUISIANA

CITY           SKY/WX    TMP DP  RH WIND       PRES   REMARKS
FORT POLK      MOSUNNY   78  75  90 W6        30.06R
ALEXANDRIA INT MOSUNNY   78  75  90 CALM      30.05R FOG
ALEXANDRIA     SUNNY     79  76  90 W3        30.06R

$$

LAZ001-002-261400-
NORTHWEST LOUISIANA

CITY           SKY/WX    TMP DP  RH WIND       PRES   REMARKS
SHREVEPORT     MOSUNNY   78  74  87 SW5       30.03R
BARKSDALE AFB  SUNNY     79  73  82 SW7       30.04R
DTN SHREVEPORT SUNNY     79  73  82 SW9       30.03R

$$

LAZ014-016-261400-
NORTHEAST LOUISIANA

CITY           SKY/WX    TMP DP  RH WIND       PRES   REMARKS
MONROE         SUNNY     77  75  93 S3        30.05R FOG
TALLULAH       SUNNY     79  76  90 VRB3      30.05R

$$




USA.gov is the U.S. government's official web portal to all federal, state and local government web resources and services.